QPF
0.00 0.00 0.00 0.00 0.00 0.00 0.00 0.00 0.00 0.00 0.00 0.00 0.00 0.00 0.00 0.00 0.00 0.00 0.00 0.00 0.00 0.00 0.00 0.01 0.01 0.02 0.02 0.02 0.02 0.03 0.03 0.02 0.02 0.02 0.02 0.01 0.01 0.01 0.01 0.01 0.01 0.01 0.01
0.00 0.00 0.00 0.00 0.00 0.00 0.00 0.00 0.00 0.00 0.00 0.00 0.00 0.00 0.00 0.00 0.00 0.00 0.00 0.00 0.00 0.00 0.00 0.00 0.01 0.02 0.03 0.03 0.04 0.04 0.04 0.03 0.03 0.03 0.03 0.03 0.02 0.02 0.02 0.02 0.02 0.01 0.01
0.00 0.00 0.00 0.00 0.00 0.00 0.00 0.00 0.00 0.00 0.00 0.00 0.00 0.00 0.00 0.00 0.00 0.00 0.00 0.00 0.00 0.00 0.00 0.00 0.01 0.02 0.03 0.03 0.04 0.04 0.04 0.04 0.03 0.03 0.02 0.03 0.03 0.03 0.03 0.03 0.02 0.02 0.02
0.01 0.01 0.01 0.01 0.01 0.00 0.00 0.00 0.00 0.00 0.00 0.00 0.00 0.00 0.00 0.00 0.00 0.00 0.00 0.00 0.00 0.00 0.00 0.00 0.01 0.01 0.02 0.03 0.03 0.04 0.05 0.05 0.03 0.03 0.03 0.03 0.03 0.03 0.04 0.03 0.03 0.03 0.03
0.02 0.01 0.01 0.01 0.01 0.01 0.01 0.01 0.01 0.01 0.01 0.00 0.00 0.00 0.00 0.00 0.00 0.00 0.00 0.00 0.00 0.00 0.00 0.00 0.00 0.00 0.01 0.01 0.02 0.03 0.04 0.05 0.06 0.05 0.05 0.05 0.04 0.04 0.04 0.04 0.04 0.04 0.04
0.03 0.02 0.02 0.03 0.03 0.03 0.03 0.03 0.02 0.01 0.01 0.01 0.00 0.01 0.01 0.01 0.00 0.00 0.00 0.00 0.00 0.00 0.00 0.00 0.00 0.00 0.00 0.00 0.00 0.01 0.03 0.04 0.05 0.06 0.06 0.05 0.05 0.05 0.05 0.05 0.04 0.03 0.04
0.05 0.04 0.04 0.04 0.04 0.04 0.03 0.03 0.02 0.01 0.01 0.01 0.01 0.01 0.01 0.01 0.01 0.01 0.01 0.01 0.00 0.00 0.00 0.00 0.00 0.00 0.00 0.00 0.00 0.00 0.01 0.03 0.04 0.04 0.05 0.05 0.06 0.07 0.07 0.08 0.06 0.05 0.04
0.09 0.09 0.07 0.06 0.05 0.05 0.03 0.03 0.03 0.02 0.03 0.03 0.04 0.05 0.05 0.03 0.02 0.01 0.00 0.00 0.00 0.00 0.00 0.00 0.00 0.00 0.00 0.00 0.01 0.01 0.00 0.01 0.02 0.03 0.04 0.04 0.04 0.05 0.06 0.08 0.08 0.09 0.07
0.12 0.10 0.09 0.10 0.09 0.07 0.06 0.05 0.05 0.05 0.05 0.06 0.06 0.05 0.04 0.03 0.01 0.01 0.00 0.00 0.00 0.00 0.00 0.00 0.00 0.00 0.00 0.00 0.00 0.01 0.00 0.01 0.01 0.02 0.03 0.04 0.05 0.05 0.06 0.07 0.08 0.10 0.10
0.12 0.12 0.11 0.11 0.10 0.09 0.08 0.08 0.08 0.07 0.06 0.04 0.03 0.03 0.04 0.03 0.02 0.01 0.01 0.00 0.00 0.00 0.00 0.00 0.00 0.00 0.00 0.00 0.00 0.00 0.01 0.01 0.01 0.01 0.03 0.04 0.04 0.05 0.07 0.07 0.08 0.08 0.08
0.14 0.12 0.12 0.12 0.10 0.08 0.08 0.07 0.07 0.05 0.04 0.03 0.03 0.02 0.02 0.02 0.02 0.02 0.01 0.01 0.00 0.00 0.00 0.00 0.00 0.00 0.00 0.00 0.00 0.01 0.01 0.01 0.01 0.01 0.02 0.03 0.03 0.03 0.05 0.07 0.08 0.08 0.07
0.14 0.13 0.12 0.12 0.11 0.10 0.10 0.09 0.07 0.06 0.05 0.04 0.03 0.03 0.02 0.02 0.02 0.03 0.03 0.02 0.01 0.00 0.00 0.00 0.00 0.00 0.00 0.00 0.00 0.01 0.01 0.01 0.01 0.01 0.03 0.02 0.02 0.03 0.04 0.06 0.08 0.07 0.07
0.12 0.13 0.15 0.15 0.14 0.14 0.13 0.12 0.09 0.06 0.05 0.04 0.03 0.03 0.03 0.02 0.02 0.02 0.02 0.02 0.01 0.00 0.00 0.00 0.00 0.00 0.00 0.00 0.01 0.01 0.01 0.01 0.01 0.01 0.02 0.02 0.01 0.01 0.02 0.05 0.07 0.06 0.06
0.12 0.12 0.12 0.11 0.11 0.13 0.14 0.14 0.11 0.09 0.06 0.05 0.04 0.03 0.02 0.02 0.01 0.01 0.02 0.02 0.01 0.00 0.00 0.00 0.00 0.00 0.00 0.00 0.00 0.01 0.01 0.01 0.01 0.01 0.01 0.01 0.01 0.01 0.02 0.02 0.03 0.04 0.04
0.12 0.12 0.11 0.10 0.09 0.09 0.10 0.11 0.10 0.09 0.07 0.05 0.04 0.03 0.02 0.01 0.01 0.01 0.01 0.01 0.01 0.01 0.00 0.00 0.00 0.00 0.00 0.00 0.00 0.00 0.00 0.01 0.00 0.00 0.00 0.00 0.00 0.01 0.01 0.01 0.02 0.03 0.03
0.10 0.09 0.09 0.07 0.07 0.07 0.07 0.08 0.07 0.07 0.05 0.04 0.02 0.02 0.01 0.01 0.01 0.01 0.01 0.01 0.01 0.01 0.01 0.00 0.00 0.00 0.00 0.00 0.00 0.00 0.00 0.01 0.01 0.01 0.00 0.00 0.00 0.00 0.00 0.01 0.01 0.02 0.02
0.08 0.07 0.06 0.05 0.05 0.05 0.05 0.06 0.06 0.05 0.04 0.01 0.01 0.00 0.00 0.00 0.00 0.00 0.00 0.00 0.00 0.00 0.00 0.00 0.00 0.00 0.00 0.00 0.00 0.00 0.01 0.01 0.01 0.01 0.01 0.01 0.01 0.01 0.01 0.01 0.01 0.01 0.01
0.06 0.05 0.04 0.04 0.03 0.03 0.03 0.03 0.04 0.03 0.03 0.02 0.01 0.00 0.00 0.00 0.00 0.00 0.00 0.00 0.00 0.00 0.00 0.00 0.00 0.00 0.00 0.00 0.00 0.01 0.01 0.01 0.01 0.01 0.01 0.01 0.01 0.01 0.01 0.01 0.01 0.00 0.01
0.06 0.07 0.06 0.04 0.03 0.02 0.01 0.01 0.01 0.01 0.01 0.01 0.01 0.00 0.00 0.00 0.00 0.00 0.00 0.00 0.00 0.00 0.00 0.00 0.00 0.00 0.00 0.00 0.00 0.01 0.01 0.01 0.01 0.01 0.01 0.00 0.00 0.00 0.00 0.00 0.00 0.00 0.00
0.05 0.05 0.04 0.03 0.03 0.02 0.01 0.01 0.01 0.00 0.00 0.00 0.00 0.00 0.00 0.00 0.00 0.00 0.00 0.00 0.00 0.00 0.00 0.00 0.00 0.00 0.00 0.00 0.00 0.01 0.01 0.01 0.01 0.00 0.00 0.00 0.00 0.00 0.00 0.00 0.00 0.00 0.00
0.03 0.03 0.02 0.02 0.02 0.01 0.01 0.01 0.00 0.00 0.00 0.00 0.00 0.00 0.00 0.00 0.00 0.00 0.00 0.00 0.00 0.00 0.00 0.00 0.00 0.00 0.00 0.00 0.00 0.00 0.01 0.01 0.01 0.00 0.00 0.00 0.00 0.00 0.00 0.00 0.00 0.00 0.00
0.02 0.02 0.02 0.02 0.02 0.02 0.02 0.02 0.01 0.01 0.01 0.00 0.00 0.00 0.00 0.00 0.00 0.00 0.00 0.00 0.00 0.00 0.00 0.00 0.00 0.00 0.00 0.00 0.01 0.01 0.01 0.01 0.01 0.00 0.00 0.00 0.00 0.00 0.00 0.00 0.00 0.00 0.00
0.01 0.01 0.01 0.02 0.02 0.02 0.02 0.01 0.01 0.01 0.00 0.00 0.00 0.00 0.00 0.00 0.00 0.00 0.00 0.00 0.00 0.00 0.00 0.00 0.00 0.00 0.00 0.00 0.00 0.01 0.01 0.01 0.01 0.00 0.00 0.00 0.00 0.00 0.00 0.00 0.00 0.00 0.00
0.01 0.01 0.01 0.01 0.01 0.01 0.01 0.01 0.00 0.00 0.00 0.00 0.00 0.00 0.00 0.00 0.00 0.00 0.00 0.00 0.00 0.00 0.00 0.00 0.00 0.00 0.00 0.00 0.00 0.00 0.00 0.00 0.00 0.00 0.00 0.00 0.00 0.00 0.00 0.00 0.00 0.00 0.00
0.00 0.00 0.01 0.01 0.01 0.01 0.00 0.00 0.00 0.00 0.00 0.00 0.00 0.00 0.00 0.00 0.00 0.00 0.00 0.00 0.00 0.00 0.00 0.00 0.00 0.00 0.00 0.00 0.00 0.00 0.00 0.00 0.00 0.00 0.00 0.00 0.00 0.00 0.00 0.00 0.00 0.00 0.00
0.01 0.01 0.01 0.00 0.00 0.00 0.00 0.00 0.00 0.00 0.00 0.00 0.00 0.00 0.00 0.00 0.00 0.00 0.00 0.00 0.00 0.00 0.00 0.00 0.00 0.00 0.00 0.00 0.00 0.00 0.00 0.00 0.00 0.00 0.00 0.00 0.00 0.00 0.00 0.00 0.00 0.00 0.00
MSLP
1019.12 1019.36 1019.58 1019.77 1019.96 1020.15 1020.35 1020.54 1020.72 1020.88 1021.00 1021.08 1021.12 1021.12 1021.10 1021.07 1021.04 1021.01 1020.97 1020.94 1020.90 1020.86 1020.82 1020.77 1020.73 1020.71 1020.72 1020.74 1020.79 1020.85 1020.92 1021.00 1021.07 1021.15 1021.23 1021.31 1021.39 1021.48 1021.56 1021.65 1021.72 1021.77 1021.81
1018.91 1019.15 1019.37 1019.58 1019.80 1020.03 1020.26 1020.48 1020.68 1020.85 1020.97 1021.04 1021.06 1021.04 1020.99 1020.92 1020.85 1020.79 1020.73 1020.68 1020.63 1020.59 1020.55 1020.52 1020.50 1020.50 1020.52 1020.56 1020.62 1020.69 1020.77 1020.85 1020.93 1021.01 1021.09 1021.17 1021.25 1021.34 1021.43 1021.52 1021.62 1021.71 1021.79
1018.63 1018.86 1019.09 1019.33 1019.59 1019.86 1020.13 1020.38 1020.61 1020.79 1020.92 1020.98 1020.99 1020.95 1020.87 1020.78 1020.68 1020.58 1020.50 1020.43 1020.37 1020.33 1020.31 1020.30 1020.31 1020.34 1020.39 1020.45 1020.52 1020.60 1020.69 1020.77 1020.84 1020.91 1020.98 1021.05 1021.11 1021.19 1021.26 1021.36 1021.46 1021.58 1021.71
1018.29 1018.52 1018.76 1019.03 1019.33 1019.64 1019.95 1020.24 1020.49 1020.69 1020.82 1020.88 1020.89 1020.84 1020.75 1020.64 1020.53 1020.41 1020.31 1020.24 1020.18 1020.15 1020.15 1020.17 1020.22 1020.28 1020.36 1020.44 1020.53 1020.61 1020.69 1020.76 1020.82 1020.86 1020.90 1020.93 1020.97 1021.01 1021.06 1021.14 1021.25 1021.38 1021.54
1017.90 1018.13 1018.39 1018.69 1019.01 1019.36 1019.70 1020.02 1020.29 1020.51 1020.65 1020.72 1020.74 1020.69 1020.61 1020.51 1020.40 1020.29 1020.19 1020.13 1020.09 1020.09 1020.12 1020.18 1020.26 1020.36 1020.46 1020.56 1020.65 1020.73 1020.79 1020.82 1020.84 1020.85 1020.84 1020.83 1020.82 1020.81 1020.83 1020.88 1020.96 1021.09 1021.27
1017.48 1017.70 1017.97 1018.28 1018.64 1019.00 1019.37 1019.70 1019.99 1020.23 1020.39 1020.49 1020.52 1020.51 1020.46 1020.38 1020.30 1020.22 1020.16 1020.12 1020.12 1020.16 1020.23 1020.33 1020.45 1020.58 1020.70 1020.80 1020.88 1020.93 1020.95 1020.94 1020.91 1020.86 1020.80 1020.73 1020.66 1020.60 1020.57 1020.57 1020.61 1020.72 1020.88
1017.01 1017.23 1017.50 1017.82 1018.19 1018.57 1018.94 1019.29 1019.60 1019.85 1020.04 1020.17 1020.25 1020.29 1020.29 1020.27 1020.24 1020.22 1020.21 1020.22 1020.27 1020.36 1020.48 1020.62 1020.77 1020.92 1021.05 1021.14 1021.19 1021.20 1021.17 1021.10 1021.00 1020.89 1020.76 1020.63 1020.51 1020.39 1020.29 1020.23 1020.21 1020.26 1020.39
1016.51 1016.72 1016.99 1017.32 1017.69 1018.08 1018.46 1018.82 1019.15 1019.42 1019.65 1019.83 1019.97 1020.07 1020.14 1020.19 1020.23 1020.27 1020.32 1020.40 1020.51 1020.65 1020.81 1021.00 1021.18 1021.34 1021.47 1021.54 1021.55 1021.50 1021.40 1021.27 1021.11 1020.93 1020.74 1020.56 1020.37 1020.19 1020.03 1019.89 1019.80 1019.77 1019.82
1016.00 1016.22 1016.50 1016.83 1017.20 1017.60 1017.99 1018.36 1018.70 1019.01 1019.28 1019.51 1019.71 1019.89 1020.03 1020.16 1020.27 1020.38 1020.49 1020.63 1020.79 1020.98 1021.19 1021.41 1021.61 1021.78 1021.89 1021.94 1021.91 1021.81 1021.65 1021.45 1021.23 1021.00 1020.77 1020.53 1020.30 1020.06 1019.83 1019.61 1019.42 1019.29 1019.24
1015.52 1015.77 1016.07 1016.41 1016.80 1017.20 1017.60 1017.98 1018.35 1018.69 1019.00 1019.29 1019.55 1019.79 1020.00 1020.19 1020.36 1020.52 1020.68 1020.86 1021.06 1021.29 1021.53 1021.77 1022.00 1022.17 1022.27 1022.29 1022.23 1022.09 1021.89 1021.65 1021.38 1021.12 1020.85 1020.59 1020.32 1020.04 1019.74 1019.44 1019.15 1018.90 1018.74
1015.13 1015.42 1015.76 1016.14 1016.54 1016.96 1017.37 1017.77 1018.16 1018.53 1018.88 1019.21 1019.53 1019.81 1020.06 1020.29 1020.49 1020.67 1020.86 1021.05 1021.27 1021.52 1021.78 1022.04 1022.27 1022.45 1022.56 1022.57 1022.50 1022.34 1022.12 1021.86 1021.58 1021.31 1021.04 1020.76 1020.48 1020.16 1019.81 1019.43 1019.05 1018.68 1018.39
1014.88 1015.24 1015.63 1016.05 1016.49 1016.92 1017.35 1017.77 1018.17 1018.56 1018.94 1019.30 1019.64 1019.94 1020.21 1020.44 1020.64 1020.81 1020.99 1021.17 1021.39 1021.63 1021.89 1022.17 1022.42 1022.62 1022.74 1022.77 1022.70 1022.56 1022.35 1022.10 1021.85 1021.59 1021.33 1021.07 1020.79 1020.46 1020.07 1019.63 1019.15 1018.68 1018.27
1014.79 1015.23 1015.70 1016.17 1016.64 1017.10 1017.54 1017.97 1018.38 1018.78 1019.17 1019.53 1019.87 1020.17 1020.42 1020.63 1020.79 1020.93 1021.06 1021.21 1021.39 1021.62 1021.88 1022.16 1022.43 1022.65 1022.81 1022.88 1022.85 1022.75 1022.59 1022.39 1022.18 1021.96 1021.75 1021.52 1021.25 1020.92 1020.52 1020.03 1019.49 1018.93 1018.41
1014.86 1015.40 1015.93 1016.45 1016.96 1017.43 1017.88 1018.31 1018.73 1019.12 1019.50 1019.86 1020.17 1020.44 1020.66 1020.81 1020.92 1020.99 1021.07 1021.17 1021.31 1021.50 1021.76 1022.04 1022.33 1022.59 1022.79 1022.92 1022.97 1022.93 1022.84 1022.71 1022.57 1022.42 1022.26 1022.07 1021.84 1021.53 1021.12 1020.62 1020.04 1019.42 1018.83
1015.08 1015.69 1016.29 1016.85 1017.37 1017.86 1018.30 1018.72 1019.12 1019.51 1019.87 1020.20 1020.48 1020.71 1020.88 1020.97 1021.02 1021.03 1021.04 1021.08 1021.17 1021.34 1021.57 1021.86 1022.17 1022.48 1022.74 1022.94 1023.06 1023.12 1023.11 1023.07 1023.01 1022.93 1022.83 1022.70 1022.51 1022.23 1021.84 1021.34 1020.75 1020.11 1019.48
1015.39 1016.06 1016.69 1017.28 1017.80 1018.28 1018.71 1019.11 1019.49 1019.85 1020.19 1020.50 1020.75 1020.94 1021.06 1021.11 1021.10 1021.05 1021.01 1020.99 1021.05 1021.18 1021.40 1021.69 1022.02 1022.36 1022.68 1022.95 1023.16 1023.30 1023.39 1023.44 1023.46 1023.46 1023.42 1023.34 1023.20 1022.95 1022.60 1022.13 1021.56 1020.94 1020.31
1015.74 1016.44 1017.08 1017.66 1018.17 1018.63 1019.04 1019.41 1019.77 1020.11 1020.43 1020.72 1020.95 1021.12 1021.21 1021.23 1021.18 1021.10 1021.01 1020.96 1020.98 1021.09 1021.29 1021.58 1021.92 1022.29 1022.66 1022.99 1023.27 1023.50 1023.67 1023.80 1023.89 1023.96 1023.98 1023.95 1023.85 1023.65 1023.34 1022.91 1022.39 1021.81 1021.23
1016.10 1016.79 1017.41 1017.96 1018.44 1018.86 1019.24 1019.60 1019.94 1020.26 1020.58 1020.86 1021.09 1021.25 1021.34 1021.35 1021.29 1021.20 1021.09 1021.03 1021.02 1021.11 1021.29 1021.57 1021.91 1022.29 1022.69 1023.06 1023.39 1023.68 1023.92 1024.12 1024.28 1024.40 1024.47 1024.48 1024.42 1024.26 1024.00 1023.62 1023.17 1022.66 1022.14
1016.44 1017.09 1017.67 1018.17 1018.61 1019.00 1019.35 1019.69 1020.02 1020.34 1020.66 1020.95 1021.19 1021.37 1021.48 1021.50 1021.46 1021.37 1021.27 1021.20 1021.18 1021.25 1021.41 1021.66 1021.99 1022.36 1022.76 1023.15 1023.52 1023.85 1024.14 1024.39 1024.60 1024.76 1024.87 1024.92 1024.89 1024.77 1024.55 1024.24 1023.85 1023.42 1022.99
1016.73 1017.33 1017.85 1018.31 1018.71 1019.07 1019.40 1019.72 1020.05 1020.38 1020.71 1021.03 1021.30 1021.51 1021.64 1021.70 1021.69 1021.62 1021.54 1021.47 1021.44 1021.49 1021.63 1021.85 1022.14 1022.49 1022.87 1023.26 1023.64 1023.99 1024.31 1024.60 1024.84 1025.04 1025.18 1025.26 1025.26 1025.17 1024.99 1024.73 1024.42 1024.07 1023.72
1016.99 1017.53 1018.00 1018.42 1018.78 1019.11 1019.43 1019.75 1020.09 1020.44 1020.79 1021.12 1021.42 1021.66 1021.84 1021.93 1021.95 1021.91 1021.85 1021.79 1021.76 1021.80 1021.90 1022.08 1022.33 1022.65 1023.00 1023.37 1023.74 1024.10 1024.44 1024.75 1025.02 1025.25 1025.42 1025.52 1025.55 1025.49 1025.35 1025.14 1024.89 1024.60 1024.33
1017.21 1017.70 1018.14 1018.52 1018.86 1019.18 1019.49 1019.81 1020.16 1020.52 1020.89 1021.24 1021.57 1021.83 1022.03 1022.16 1022.21 1022.20 1022.16 1022.11 1022.09 1022.10 1022.18 1022.33 1022.54 1022.81 1023.13 1023.47 1023.83 1024.19 1024.54 1024.87 1025.17 1025.42 1025.62 1025.75 1025.80 1025.77 1025.66 1025.49 1025.28 1025.06 1024.84
1017.38 1017.86 1018.27 1018.63 1018.96 1019.27 1019.58 1019.91 1020.25 1020.62 1021.00 1021.36 1021.70 1021.98 1022.20 1022.34 1022.42 1022.43 1022.41 1022.38 1022.36 1022.37 1022.43 1022.55 1022.73 1022.97 1023.25 1023.57 1023.92 1024.28 1024.64 1024.99 1025.31 1025.59 1025.81 1025.96 1026.04 1026.04 1025.97 1025.83 1025.65 1025.46 1025.29
1017.52 1017.98 1018.39 1018.74 1019.06 1019.37 1019.68 1020.00 1020.35 1020.72 1021.09 1021.45 1021.78 1022.06 1022.29 1022.44 1022.53 1022.57 1022.57 1022.56 1022.55 1022.57 1022.63 1022.74 1022.91 1023.13 1023.39 1023.70 1024.03 1024.39 1024.76 1025.12 1025.47 1025.77 1026.02 1026.20 1026.30 1026.33 1026.28 1026.17 1026.01 1025.85 1025.70
1017.60 1018.07 1018.47 1018.81 1019.13 1019.43 1019.73 1020.05 1020.39 1020.75 1021.11 1021.45 1021.77 1022.05 1022.26 1022.43 1022.53 1022.59 1022.62 1022.64 1022.66 1022.71 1022.79 1022.91 1023.08 1023.30 1023.56 1023.86 1024.20 1024.56 1024.93 1025.30 1025.66 1025.98 1026.25 1026.46 1026.58 1026.63 1026.61 1026.52 1026.38 1026.24 1026.10
1017.61 1018.08 1018.48 1018.82 1019.13 1019.41 1019.71 1020.02 1020.34 1020.68 1021.02 1021.35 1021.65 1021.92 1022.13 1022.30 1022.42 1022.51 1022.57 1022.63 1022.70 1022.79 1022.91 1023.06 1023.26 1023.49 1023.77 1024.08 1024.41 1024.77 1025.15 1025.52 1025.88 1026.21 1026.49 1026.71 1026.86 1026.93 1026.92 1026.86 1026.75 1026.61 1026.48
Thickness
5687 5686 5686 5685 5684 5683 5682 5681 5680 5679 5678 5677 5676 5675 5674 5673 5672 5671 5670 5668 5667 5665 5664 5662 5660 5657 5655 5652 5648 5645 5642 5639 5636 5632 5629 5626 5623 5620 5617 5614 5611 5608 5605
5684 5682 5681 5681 5680 5679 5678 5676 5675 5674 5673 5672 5671 5670 5670 5669 5668 5666 5665 5664 5662 5661 5659 5657 5655 5653 5650 5647 5644 5640 5636 5633 5630 5627 5624 5621 5618 5615 5612 5609 5606 5603 5600
5680 5679 5678 5677 5676 5675 5673 5672 5670 5669 5668 5667 5666 5665 5665 5664 5663 5662 5660 5659 5658 5656 5654 5652 5649 5647 5644 5641 5638 5635 5631 5628 5625 5622 5618 5615 5612 5609 5606 5604 5601 5598 5595
5676 5674 5673 5673 5672 5670 5668 5667 5665 5663 5662 5661 5660 5659 5659 5658 5657 5656 5655 5654 5652 5650 5648 5646 5643 5641 5638 5635 5632 5628 5625 5622 5619 5616 5613 5610 5607 5604 5601 5599 5596 5593 5590
5672 5671 5670 5668 5667 5665 5663 5662 5660 5658 5656 5655 5654 5653 5652 5652 5651 5649 5648 5647 5645 5643 5641 5639 5636 5634 5631 5628 5624 5621 5618 5615 5612 5610 5607 5604 5601 5599 5596 5593 5591 5588 5586
5668 5666 5665 5663 5662 5659 5658 5656 5654 5652 5650 5649 5647 5646 5645 5645 5644 5642 5641 5639 5638 5636 5633 5631 5628 5625 5622 5619 5616 5613 5611 5608 5605 5603 5601 5598 5595 5593 5591 5588 5586 5583 5581
5663 5661 5660 5658 5657 5654 5653 5651 5648 5645 5643 5641 5639 5637 5637 5637 5635 5634 5632 5631 5628 5626 5624 5621 5619 5616 5613 5610 5607 5604 5602 5600 5598 5596 5594 5591 5589 5587 5585 5582 5580 5578 5576
5657 5656 5655 5653 5651 5649 5646 5644 5641 5639 5636 5634 5632 5629 5627 5627 5626 5624 5622 5620 5618 5616 5613 5610 5608 5605 5603 5600 5597 5595 5593 5591 5590 5588 5586 5584 5582 5580 5578 5577 5575 5573 5571
5651 5650 5649 5647 5645 5642 5639 5637 5635 5632 5629 5626 5624 5622 5619 5618 5616 5614 5611 5609 5607 5604 5601 5599 5597 5594 5592 5589 5587 5585 5583 5581 5581 5580 5578 5576 5574 5573 5571 5570 5569 5568 5565
5644 5644 5642 5640 5638 5635 5632 5629 5627 5625 5622 5618 5615 5614 5613 5611 5608 5606 5602 5598 5596 5593 5590 5588 5585 5583 5581 5578 5576 5575 5573 5572 5571 5571 5569 5568 5567 5565 5564 5563 5562 5561 5560
5637 5636 5634 5632 5630 5628 5625 5622 5620 5617 5615 5612 5608 5606 5603 5601 5600 5597 5597 5591 5586 5582 5579 5577 5574 5572 5569 5567 5566 5565 5563 5562 5561 5561 5560 5559 5558 5557 5556 5555 5555 5554 5553
5628 5627 5625 5623 5621 5619 5617 5614 5611 5608 5605 5603 5600 5597 5595 5593 5591 5589 5589 5586 5581 5574 5569 5566 5564 5561 5558 5556 5555 5553 5552 5551 5550 5550 5550 5549 5548 5547 5547 5547 5547 5547 5546
5619 5618 5616 5614 5611 5609 5606 5604 5601 5598 5595 5593 5590 5587 5585 5583 5581 5579 5578 5576 5572 5566 5560 5556 5553 5550 5547 5545 5543 5542 5540 5540 5539 5538 5538 5537 5536 5536 5537 5537 5538 5538 5538
5611 5609 5606 5604 5601 5599 5596 5593 5590 5587 5584 5581 5579 5576 5574 5572 5570 5568 5567 5565 5563 5559 5553 5548 5543 5539 5537 5534 5533 5531 5529 5528 5527 5527 5526 5525 5525 5525 5525 5526 5526 5527 5528
5600 5598 5595 5592 5589 5587 5584 5582 5579 5576 5573 5570 5567 5565 5562 5560 5558 5556 5555 5553 5553 5553 5550 5540 5533 5529 5526 5523 5522 5520 5518 5517 5516 5515 5514 5513 5513 5513 5514 5514 5515 5516 5517
5589 5586 5583 5580 5577 5574 5572 5570 5567 5564 5561 5557 5556 5554 5551 5549 5547 5545 5543 5541 5540 5540 5540 5530 5523 5519 5515 5513 5510 5508 5507 5505 5504 5503 5502 5502 5502 5502 5502 5502 5503 5504 5506
5577 5574 5571 5568 5565 5562 5560 5557 5554 5552 5549 5545 5543 5542 5539 5537 5535 5532 5530 5529 5527 5527 5526 5518 5512 5507 5504 5501 5499 5497 5495 5494 5492 5491 5491 5490 5490 5490 5490 5491 5492 5493 5494
5564 5561 5558 5556 5553 5550 5547 5545 5542 5540 5537 5534 5531 5529 5527 5525 5523 5520 5518 5517 5515 5514 5514 5508 5501 5497 5493 5491 5488 5486 5484 5482 5481 5480 5480 5479 5479 5479 5479 5479 5480 5481 5482
5550 5548 5545 5543 5540 5537 5535 5533 5530 5527 5525 5522 5520 5518 5516 5514 5511 5509 5507 5505 5504 5503 5501 5498 5492 5487 5483 5480 5477 5474 5472 5471 5470 5469 5468 5468 5468 5468 5468 5469 5469 5470 5471
5538 5535 5532 5530 5528 5525 5523 5520 5517 5515 5513 5510 5508 5506 5504 5503 5500 5497 5496 5494 5492 5491 5489 5486 5482 5477 5473 5470 5467 5464 5461 5460 5458 5458 5458 5458 5458 5458 5458 5458 5459 5460 5460
5526 5523 5520 5517 5515 5513 5511 5508 5506 5503 5501 5498 5496 5495 5493 5492 5490 5488 5486 5484 5482 5480 5477 5474 5471 5467 5463 5460 5458 5455 5453 5449 5448 5447 5448 5447 5448 5448 5448 5448 5449 5450 5450
5513 5511 5508 5506 5504 5503 5501 5499 5496 5493 5490 5487 5485 5483 5482 5480 5480 5479 5477 5474 5472 5469 5466 5464 5461 5458 5455 5452 5449 5448 5444 5442 5440 5438 5439 5438 5438 5438 5438 5439 5440 5440 5441
5501 5499 5496 5494 5493 5491 5491 5489 5487 5482 5479 5477 5475 5472 5471 5470 5469 5467 5465 5463 5461 5460 5459 5456 5453 5450 5448 5446 5443 5439 5437 5435 5433 5431 5431 5429 5429 5429 5429 5430 5431 5431 5432
5490 5488 5486 5484 5482 5481 5481 5479 5477 5472 5469 5467 5464 5462 5460 5459 5458 5455 5453 5451 5449 5448 5448 5446 5444 5443 5441 5439 5437 5434 5431 5426 5423 5422 5423 5421 5420 5420 5421 5421 5422 5423 5423
5480 5478 5476 5474 5472 5472 5471 5470 5467 5462 5458 5456 5454 5453 5451 5449 5448 5446 5442 5440 5438 5437 5437 5436 5435 5434 5433 5431 5428 5425 5421 5419 5417 5414 5414 5414 5412 5412 5412 5413 5413 5414 5414
5471 5468 5466 5465 5464 5462 5462 5460 5458 5453 5449 5447 5444 5443 5442 5441 5440 5438 5433 5430 5428 5427 5426 5426 5424 5424 5423 5421 5420 5418 5415 5412 5409 5407 5406 5406 5404 5403 5403 5404 5404 5404 5405